• In Netherlands
  • List of Countries
  • For 7 days
  • Water Temperature
  • Satellite Maps
  • Weather Map
  • Weather Widgets
  • user-avatar
    Login

    Hourly Weather San Miguel de Tucumán

    Today, 28 March, Tuesday

    Time Temperature Precipitation Wind Pressure Humidity
    00:00 +24°C° 0.4 mm 2 mps 721 mmHg 91%
    01:00 +23°C° 0.4 mm 2 mps 721 mmHg 92%
    02:00 +23°C° 0.4 mm 2 mps 721 mmHg 93%
    03:00 +23°C° 0.2 mm 2 mps 720 mmHg 93%
    04:00 +23°C° 0.2 mm 2 mps 720 mmHg 94%
    05:00 +23°C° 0.2 mm 2 mps 720 mmHg 94%
    06:00 +23°C° 0.3 mm 2 mps 721 mmHg 91%
    07:00 +24°C° 0.3 mm 2 mps 721 mmHg 89%
    08:00 +25°C° 0.3 mm 3 mps 722 mmHg 86%
    09:00 +27°C° 0.5 mm 3 mps 722 mmHg 79%
    10:00 +29°C° 0.5 mm 4 mps 721 mmHg 72%
    11:00 +30°C° 0.5 mm 4 mps 721 mmHg 65%
    12:00 +32°C° 0.8 mm 5 mps 721 mmHg 63%
    13:00 +32°C° 0.8 mm 5 mps 720 mmHg 62%
    14:00 +33°C° 0.8 mm 5 mps 719 mmHg 61%
    15:00 +32°C° 1.1 mm 4 mps 719 mmHg 63%
    16:00 +32°C° 1.1 mm 4 mps 719 mmHg 66%
    17:00 +30°C° 1.1 mm 4 mps 718 mmHg 68%
    18:00 +29°C° 1.1 mm 3 mps 719 mmHg 74%
    19:00 +27°C° 1.1 mm 3 mps 719 mmHg 81%
    20:00 +25°C° 1.1 mm 3 mps 720 mmHg 87%
    21:00 +25°C° 0.5 mm 2 mps 720 mmHg 87%
    22:00 +25°C° 0.5 mm 2 mps 720 mmHg 88%
    23:00 +25°C° 0.5 mm 2 mps 721 mmHg 88%

    Tomorrow, 29 March, Wednesday

    Time Temperature Precipitation Wind Pressure Humidity
    00:00 +24°C° 0.4 mm 2 mps 720 mmHg 89%
    01:00 +24°C° 0.4 mm 2 mps 720 mmHg 90%
    02:00 +24°C° 0.4 mm 2 mps 720 mmHg 91%
    03:00 +23°C° 0 mm 2 mps 719 mmHg 91%
    04:00 +23°C° 0 mm 2 mps 719 mmHg 91%
    05:00 +23°C° 0 mm 2 mps 719 mmHg 91%
    06:00 +24°C° 0 mm 2 mps 719 mmHg 88%
    07:00 +25°C° 0 mm 3 mps 719 mmHg 85%
    08:00 +26°C° 0 mm 3 mps 719 mmHg 82%
    09:00 +28°C° 0 mm 4 mps 719 mmHg 73%
    10:00 +30°C° 0 mm 5 mps 719 mmHg 64%
    11:00 +33°C° 0 mm 6 mps 719 mmHg 54%
    12:00 +34°C° 0 mm 6 mps 718 mmHg 53%
    13:00 +34°C° 0 mm 6 mps 717 mmHg 53%
    14:00 +35°C° 0 mm 6 mps 716 mmHg 52%
    15:00 +34°C° 0.7 mm 6 mps 715 mmHg 57%
    16:00 +33°C° 0.7 mm 5 mps 715 mmHg 62%
    17:00 +32°C° 0.7 mm 5 mps 714 mmHg 67%
    18:00 +29°C° 0.2 mm 4 mps 715 mmHg 72%
    19:00 +28°C° 0.2 mm 3 mps 715 mmHg 77%
    20:00 +27°C° 0.2 mm 3 mps 715 mmHg 82%
    21:00 +26°C° 0 mm 3 mps 716 mmHg 83%
    22:00 +26°C° 0 mm 3 mps 716 mmHg 83%
    23:00 +26°C° 0 mm 3 mps 716 mmHg 83%

    Day after tomorrow, 30 March, Thursday

    Time Temperature Precipitation Wind Pressure Humidity
    00:00 +26°C° 0 mm 3 mps 716 mmHg 84%
    01:00 +26°C° 0 mm 3 mps 715 mmHg 84%
    02:00 +25°C° 0 mm 3 mps 715 mmHg 84%
    03:00 +25°C° 0 mm 2 mps 715 mmHg 85%
    04:00 +24°C° 0 mm 2 mps 715 mmHg 86%
    05:00 +24°C° 0 mm 2 mps 715 mmHg 87%
    06:00 +25°C° 0 mm 2 mps 715 mmHg 83%
    07:00 +26°C° 0 mm 2 mps 716 mmHg 80%
    08:00 +27°C° 0 mm 1 mps 717 mmHg 76%
    09:00 +28°C° 0.9 mm 2 mps 717 mmHg 72%
    10:00 +30°C° 0.9 mm 2 mps 717 mmHg 69%
    11:00 +31°C° 0.9 mm 2 mps 717 mmHg 65%
    12:00 +31°C° 2 mm 3 mps 717 mmHg 66%
    13:00 +31°C° 2 mm 3 mps 716 mmHg 67%
    14:00 +31°C° 2 mm 3 mps 716 mmHg 68%
    15:00 +30°C° 2.5 mm 3 mps 716 mmHg 71%
    16:00 +30°C° 2.5 mm 3 mps 716 mmHg 74%
    17:00 +29°C° 2.5 mm 3 mps 716 mmHg 77%
    18:00 +27°C° 2.1 mm 3 mps 717 mmHg 83%
    19:00 +26°C° 2.1 mm 2 mps 717 mmHg 88%
    20:00 +24°C° 2.1 mm 2 mps 718 mmHg 94%
    21:00 +24°C° 0.9 mm 2 mps 718 mmHg 95%
    22:00 +24°C° 0.9 mm 2 mps 719 mmHg 96%
    23:00 +24°C° 0.9 mm 2 mps 719 mmHg 97%

    31 March, Friday

    Time Temperature Precipitation Wind Pressure Humidity
    00:00 +23°C° 0.9 mm 1 mps 719 mmHg 97%
    01:00 +23°C° 0.9 mm 1 mps 719 mmHg 97%
    02:00 +23°C° 0.9 mm 1 mps 719 mmHg 96%
    03:00 +23°C° 0.6 mm 1 mps 718 mmHg 96%
    04:00 +23°C° 0.6 mm 1 mps 718 mmHg 96%
    05:00 +23°C° 0.6 mm 1 mps 718 mmHg 96%
    06:00 +23°C° 0.4 mm 2 mps 719 mmHg 95%
    07:00 +24°C° 0.4 mm 2 mps 719 mmHg 95%
    08:00 +24°C° 0.4 mm 2 mps 720 mmHg 94%
    09:00 +25°C° 0.1 mm 3 mps 720 mmHg 89%
    10:00 +26°C° 0.1 mm 3 mps 720 mmHg 84%
    11:00 +27°C° 0.1 mm 4 mps 720 mmHg 78%
    12:00 +28°C° 0.1 mm 4 mps 719 mmHg 74%
    13:00 +29°C° 0.1 mm 4 mps 719 mmHg 70%
    14:00 +30°C° 0.1 mm 5 mps 718 mmHg 65%
    15:00 +29°C° 0.7 mm 4 mps 718 mmHg 71%
    16:00 +28°C° 0.7 mm 3 mps 718 mmHg 76%
    17:00 +27°C° 0.7 mm 3 mps 718 mmHg 81%
    18:00 +26°C° 1.1 mm 3 mps 718 mmHg 85%
    19:00 +25°C° 1.1 mm 2 mps 719 mmHg 88%
    20:00 +24°C° 1.1 mm 2 mps 720 mmHg 91%
    21:00 +24°C° 0.9 mm 2 mps 720 mmHg 92%
    22:00 +24°C° 0.9 mm 2 mps 720 mmHg 93%
    23:00 +24°C° 0.9 mm 2 mps 721 mmHg 93%

    1 April, Saturday

    Time Temperature Precipitation Wind Pressure Humidity
    00:00 +24°C° 0.6 mm 2 mps 720 mmHg 94%
    01:00 +24°C° 0.6 mm 2 mps 720 mmHg 94%
    02:00 +24°C° 0.6 mm 2 mps 720 mmHg 95%
    03:00 +24°C° 1 mm 1 mps 720 mmHg 95%
    04:00 +23°C° 1 mm 1 mps 720 mmHg 95%
    05:00 +23°C° 1 mm 1 mps 720 mmHg 95%
    06:00 +24°C° 0.9 mm 1 mps 720 mmHg 94%
    07:00 +24°C° 0.9 mm 2 mps 720 mmHg 94%
    08:00 +24°C° 0.9 mm 2 mps 721 mmHg 93%
    09:00 +24°C° 1.6 mm 3 mps 721 mmHg 93%
    10:00 +25°C° 1.6 mm 3 mps 721 mmHg 92%
    11:00 +25°C° 1.6 mm 4 mps 721 mmHg 91%
    12:00 +26°C° 0.5 mm 4 mps 720 mmHg 87%
    13:00 +26°C° 0.5 mm 5 mps 719 mmHg 82%
    14:00 +27°C° 0.5 mm 5 mps 719 mmHg 78%
    15:00 +27°C° 0.1 mm 5 mps 718 mmHg 78%
    16:00 +27°C° 0.1 mm 5 mps 718 mmHg 77%
    17:00 +27°C° 0.1 mm 5 mps 718 mmHg 77%
    18:00 +26°C° 0.2 mm 4 mps 718 mmHg 82%
    19:00 +25°C° 0.2 mm 4 mps 718 mmHg 86%
    20:00 +24°C° 0.2 mm 3 mps 719 mmHg 91%
    21:00 +24°C° 0.5 mm 3 mps 719 mmHg 91%
    22:00 +24°C° 0.5 mm 2 mps 719 mmHg 92%
    23:00 +24°C° 0.5 mm 2 mps 719 mmHg 92%

    2 April, Sunday

    Time Temperature Precipitation Wind Pressure Humidity
    00:00 +24°C° 0.8 mm 2 mps 719 mmHg 93%
    01:00 +24°C° 0.8 mm 1 mps 718 mmHg 93%
    02:00 +24°C° 0.8 mm 1 mps 718 mmHg 94%
    03:00 +23°C° 0.4 mm 2 mps 718 mmHg 94%
    04:00 +23°C° 0.4 mm 2 mps 717 mmHg 94%
    05:00 +23°C° 0.4 mm 2 mps 717 mmHg 95%
    06:00 +22°C° 0.2 mm 3 mps 717 mmHg 94%
    07:00 +24°C° 0.2 mm 3 mps 718 mmHg 93%
    08:00 +23°C° 0.2 mm 4 mps 718 mmHg 92%
    09:00 +25°C° 0 mm 4 mps 718 mmHg 82%
    10:00 +27°C° 0 mm 5 mps 718 mmHg 73%
    11:00 +28°C° 0 mm 5 mps 718 mmHg 63%
    12:00 +29°C° 0 mm 5 mps 717 mmHg 60%
    13:00 +30°C° 0 mm 5 mps 716 mmHg 57%
    14:00 +32°C° 0 mm 5 mps 716 mmHg 53%
    15:00 +30°C° 0 mm 5 mps 715 mmHg 57%
    16:00 +29°C° 0 mm 5 mps 715 mmHg 60%
    17:00 +28°C° 0 mm 5 mps 715 mmHg 64%
    18:00 +26°C° 0 mm 4 mps 715 mmHg 72%
    19:00 +25°C° 0 mm 3 mps 716 mmHg 80%
    20:00 +22°C° 0 mm 3 mps 716 mmHg 88%
    21:00 +21°C° 0.2 mm 2 mps 716 mmHg 89%
    22:00 +21°C° 0.2 mm 2 mps 717 mmHg 90%
    23:00 +21°C° 0.2 mm 2 mps 717 mmHg 91%
    Show more